Regional Weather Roundup
Issued by NWS

Home | Current Version | Previous Version | Text Only | Print | Product List | Glossary On
Versions: 1 2 3 4 5 6 7 8 9 10 11 12 13 14 15 16 17 18 19 20 21 22 23 24 25 26 27 28 29 30 31 32 33 34 35 36 37 38 39 40 41 42 43 44 45 46 47 48 49 50
000
ASCA42 TJSJ 280210
RWRPR
PUERTO RICO/U.S. VIRGIN ISLANDS HOURLY WEATHER ROUNDUP
NATIONAL WEATHER SERVICE SAN JUAN PR
1000 PM AST THU AUG 27 2015

PRZ001-004-280300-
PUERTO RICO

CITY           SKY/WX    TMP DP  RH WIND       PRES   REMARKS
SAN JUAN LMM   LGT RAIN  82  75  78 E22G28    29.90S
$$

PRZ006-007-280300-
U.S. VIRGIN ISLANDS

CITY           SKY/WX    TMP DP  RH WIND       PRES   REMARKS
CHARLOTTE AMA  LGT RAIN  82  75  78 SE32G46   29.91R
CHRISTIANSTED  LGT RAIN  79  77  94 SE29G41   29.92R
$$

HOURLY WEATHER ROUNDUP FOR THE NEWS MEDIA

CITY           SKY/WX    TMP DP  RH WIND       PRES   REMARKS
ORLANDO        PTCLDY    77  74  90 CALM      29.98R
NEW YORK       PTCLDY    73  49  42 NW8       30.11R
NEWARK         PTCLDY    72  53  51 NW7       30.10R
CHICAGO        MOCLDY    66  55  67 E6        30.12S
HARTFORD       PTCLDY    64  58  80 CALM      30.05R
BOSTON         PTCLDY    72  54  53 NW7       30.05R
DALLAS         PTCLDY    86  58  38 SE15      29.97S
PHILADELPHIA   CLEAR     73  53  49 NW7       30.13R
LOS ANGELES    PTCLDY    77  69  76 W12       29.87F
WASHINGTON DC  MOCLDY    68  56  65 CALM      30.15R


USA.gov is the U.S. government's official web portal to all federal, state and local government web resources and services.